Temperature
26 26 25 25 28 29 29 29 29 29 29 28 28 27 26 25 24 22 21 21 20 19 19 19 19 19 18 18 18 18 18 18 18 18 18 18 18 18 18 18 18 18 18 18 18 18 18 18 18
26 25 25 28 29 29 29 29 29 29 29 28 28 27 26 25 23 22 21 21 20 19 19 19 19 19 18 18 18 18 18 18 18 18 18 18 18 18 18 18 18 18 18 18 18 18 18 18 18
26 26 28 31 30 29 29 30 30 30 29 28 27 26 25 24 23 22 21 21 20 19 19 19 19 19 19 18 18 18 18 18 18 18 18 18 18 18 18 18 18 18 18 18 18 18 18 18 18
26 29 31 31 30 31 30 30 31 30 29 29 28 26 24 24 23 22 22 21 20 19 19 19 19 19 19 19 18 18 18 18 18 18 18 18 18 18 18 18 18 18 18 18 18 18 18 18 18
28 31 31 31 31 31 32 31 31 30 29 28 27 25 24 23 23 22 22 21 21 20 19 19 19 19 19 19 19 18 18 18 18 18 18 18 18 18 18 18 18 18 18 18 18 18 18 18 18
31 33 31 30 31 32 32 31 31 30 29 28 26 25 24 23 23 22 22 22 21 20 19 20 19 19 19 19 19 19 19 18 18 18 18 18 18 18 18 18 18 18 18 18 18 18 18 18 18
32 33 32 32 31 31 32 31 31 30 30 29 27 26 24 23 23 23 22 22 21 20 20 19 19 19 19 19 19 19 19 19 18 18 18 18 18 18 18 18 18 18 18 18 18 18 18 18 18
34 34 33 33 32 31 32 31 30 30 29 29 28 26 24 23 23 23 22 22 22 21 20 19 19 19 19 19 19 19 19 19 18 18 18 18 18 18 18 18 18 18 18 18 18 18 18 18 18
35 34 32 33 32 32 32 31 30 30 29 28 27 26 24 24 23 23 22 22 21 21 20 20 19 19 19 19 19 19 19 19 18 18 18 18 18 18 18 18 18 18 18 18 18 18 18 18 19
35 33 33 34 33 33 32 31 31 30 29 27 26 25 24 24 24 23 23 22 22 21 21 21 20 20 20 19 19 19 18 18 18 18 18 18 18 18 18 18 18 18 18 19 18 18 18 18 18
35 34 34 34 33 33 33 32 31 31 29 28 26 25 25 24 24 24 23 22 22 21 21 21 20 20 20 19 19 19 19 19 18 18 18 18 18 18 18 18 18 18 18 18 18 18 18 18 18
35 35 35 34 34 33 33 32 31 31 29 27 26 26 25 25 24 24 23 22 22 22 21 21 20 20 20 19 19 19 19 19 19 19 19 18 18 18 18 18 18 18 18 18 18 18 18 18 18
35 35 35 34 34 33 33 32 31 30 28 27 26 26 25 25 24 24 23 22 22 21 21 20 20 20 19 19 19 19 19 19 19 19 19 19 19 18 18 18 18 18 18 18 18 18 18 18 18
35 35 34 34 33 33 32 32 31 29 28 27 27 26 26 25 25 24 23 22 22 21 21 20 20 19 19 19 19 19 19 19 19 19 18 18 18 18 18 18 18 18 18 18 18 18 18 18 18
34 34 34 34 34 33 32 31 31 29 28 28 27 27 26 26 25 24 23 22 22 21 21 20 20 19 19 19 19 19 19 19 19 19 19 19 18 18 18 18 18 18 18 18 18 18 18 18 18
34 33 33 34 35 33 32 30 31 30 29 28 28 27 26 26 25 24 23 23 22 21 21 20 20 20 19 19 19 19 19 19 19 19 19 18 18 18 18 18 18 18 18 18 18 18 18 18 18
32 32 32 34 35 34 33 30 31 30 29 29 28 27 26 26 25 24 24 23 22 21 21 20 20 20 19 19 19 19 19 19 19 19 19 18 18 18 18 18 18 18 18 18 18 18 18 18 18
31 32 33 33 34 34 32 31 31 31 30 29 29 28 27 26 25 25 24 23 22 21 21 20 20 20 19 19 19 19 19 19 19 19 19 18 18 18 18 18 18 18 18 18 18 18 18 18 18
33 33 33 33 35 34 32 31 31 31 31 30 29 28 27 26 26 25 24 23 22 21 21 20 20 20 20 19 19 19 19 19 19 19 19 18 18 18 18 18 18 18 18 18 18 18 18 18 18
34 33 33 34 34 34 32 30 31 32 31 31 30 29 28 27 26 25 24 24 23 22 21 21 20 20 20 20 20 19 19 19 19 19 19 18 18 18 18 18 18 18 18 18 18 18 18 18 18
34 33 33 33 34 34 32 30 30 31 32 31 30 30 29 27 26 25 25 24 23 22 21 21 21 20 20 20 20 20 19 19 19 19 19 18 18 18 18 18 18 18 18 18 18 18 18 18 18
33 34 34 33 32 32 33 29 29 30 31 32 31 30 29 28 27 26 25 24 24 23 22 21 21 21 20 20 20 20 20 19 19 19 19 18 18 18 18 18 18 18 18 18 18 18 18 18 18
34 35 34 33 32 32 33 31 30 30 30 31 32 31 30 29 28 27 26 25 24 23 22 22 21 21 21 20 20 20 20 19 19 19 19 19 18 18 18 18 18 18 18 18 18 18 18 18 18
35 34 33 33 32 30 32 32 29 30 31 31 32 31 30 30 28 27 26 25 25 24 23 22 21 21 21 21 20 20 20 20 19 19 19 19 19 18 18 18 18 18 18 18 18 18 18 18 18
34 32 31 30 30 29 31 31 31 32 33 33 33 32 31 30 29 28 27 25 25 24 23 22 22 21 21 21 20 20 20 20 19 19 19 19 19 19 19 18 18 18 18 18 18 18 18 17 18
33 33 31 29 29 29 30 30 32 34 34 34 33 32 31 30 29 28 27 26 25 24 23 23 22 22 21 21 21 20 20 20 20 19 19 19 19 19 18 18 18 18 18 17 17 17 17 17 17
33 33 34 32 31 30 30 31 32 33 34 34 33 32 31 30 29 28 27 26 25 24 24 23 22 22 21 21 21 21 21 20 20 19 19 19 19 18 18 18 18 18 18 18 17 17 17 17 17
34 34 33 32 30 29 29 29 30 31 32 33 33 32 31 30 29 28 27 26 25 24 24 23 22 22 22 21 21 21 21 20 20 19 19 19 19 18 18 18 17 17 17 17 17 17 17 17 17
33 33 32 31 31 30 29 28 31 31 32 33 33 32 31 30 29 28 27 26 25 24 24 23 22 22 22 21 21 21 20 20 20 20 19 19 19 18 18 18 17 17 17 17 17 17 17 17 16
33 33 32 30 30 30 30 30 33 32 32 32 32 31 31 30 29 28 27 26 25 24 24 23 22 22 22 21 21 21 20 20 20 19 19 19 19 18 18 18 17 17 17 17 17 17 16 16 16
Wind_Speed
8 10 9 5 3 7 16 16 15 15 15 15 16 16 19 17 13 12 10 13 14 14 13 13 13 13 14 14 14 15 15 15 16 16 16 16 16 17 17 17 17 17 18 18 18 17 17 16 16
9 12 8 3 3 12 15 14 14 14 13 14 17 20 20 19 16 13 12 13 14 14 13 13 13 13 14 15 15 15 15 15 16 16 16 15 16 16 16 17 17 17 17 17 17 16 16 16 15
11 14 5 2 12 14 15 13 12 12 12 15 17 18 15 15 15 12 12 15 16 15 15 14 13 14 14 15 15 15 15 15 16 15 15 15 15 15 16 17 17 17 17 16 16 15 15 14 13
8 6 1 8 16 16 14 12 12 13 12 13 15 13 15 15 15 15 14 14 15 15 16 15 13 14 14 14 14 14 14 14 15 15 14 14 15 15 16 16 16 16 15 15 15 15 14 13 12
9 2 6 12 16 15 13 12 13 14 15 18 19 17 16 16 15 15 14 14 15 15 16 15 13 13 13 12 13 13 13 13 14 14 14 14 14 15 16 16 16 16 15 15 14 13 13 11 10
5 2 7 12 15 13 12 13 14 14 15 18 19 18 14 14 14 13 12 12 14 15 15 14 13 13 13 13 13 13 12 12 12 12 13 13 13 14 15 15 15 14 14 13 12 12 11 10 7
7 2 9 14 13 13 12 13 13 12 13 14 17 16 13 13 12 12 11 11 12 14 14 12 13 12 13 13 12 12 11 11 11 11 11 11 12 12 13 13 13 12 12 11 10 10 9 8 6
4 3 10 13 14 14 13 13 13 13 11 11 13 13 14 13 13 12 11 10 11 11 12 10 11 12 11 12 12 11 10 10 9 9 9 10 11 11 12 12 11 11 10 9 8 8 7 5 4
2 5 11 12 13 13 13 14 13 13 14 13 15 18 17 16 13 12 11 10 10 9 9 8 9 8 9 11 12 11 10 8 8 7 7 7 7 9 9 11 11 10 8 8 7 7 6 5 5
5 9 14 13 13 13 13 12 12 13 14 16 18 18 17 15 12 11 11 10 9 7 8 7 8 6 7 8 10 8 8 8 6 6 7 6 5 7 9 11 11 10 8 7 7 7 7 7 6
9 11 13 13 12 12 12 11 11 13 14 16 17 17 16 14 12 11 11 11 10 7 7 8 8 6 6 5 6 4 6 7 5 5 5 4 3 5 8 9 8 8 9 8 8 9 7 7 5
9 10 11 12 12 12 11 12 14 14 16 17 16 16 14 12 11 10 11 12 9 7 8 8 8 7 6 5 3 3 4 4 3 4 4 3 1 1 2 3 5 5 5 5 5 4 4 3 2
8 8 10 10 11 12 12 14 16 16 18 17 16 15 14 12 11 10 11 11 9 7 8 9 8 7 5 4 3 4 3 3 4 4 3 3 2 1 2 1 1 1 3 3 2 1 0 0 1
6 7 8 10 10 10 11 12 15 16 17 16 15 13 13 12 12 11 10 10 9 8 8 8 8 7 4 3 1 1 2 4 4 4 4 3 2 1 1 1 1 1 0 1 1 1 1 1 1
4 4 7 8 9 10 11 10 14 16 16 15 14 13 12 11 11 11 10 9 9 8 8 7 7 7 4 2 1 1 1 3 4 4 3 2 2 1 1 1 1 1 1 0 1 0 1 1 1
5 5 5 7 8 10 7 9 14 16 15 14 13 12 12 11 11 11 11 9 10 9 7 4 6 8 5 2 1 2 2 3 3 3 3 3 2 0 1 1 1 1 1 1 1 1 0 0 0
6 7 7 7 7 9 7 11 14 15 15 14 13 13 12 12 11 11 11 11 10 9 8 5 5 6 5 4 2 1 2 2 1 2 2 2 2 0 1 0 0 1 0 1 1 1 1 1 0
6 6 5 5 6 6 7 11 14 15 14 14 14 14 13 13 12 11 11 11 11 9 8 7 5 5 3 3 2 1 1 1 1 2 2 2 1 1 1 0 1 1 1 1 1 1 0 1 1
8 7 4 3 5 6 6 9 13 15 15 15 14 14 14 13 13 12 11 12 12 10 9 7 6 5 3 2 1 2 1 1 2 2 3 2 1 2 1 2 1 1 0 0 1 0 1 1 2
8 6 5 4 3 4 6 6 10 14 15 15 15 15 14 14 14 13 12 12 12 11 10 8 7 6 5 3 2 1 1 1 2 2 3 3 3 2 2 1 1 1 0 0 1 0 1 1 1
8 7 6 4 4 6 5 5 7 11 13 14 15 15 15 16 16 15 14 12 12 11 11 9 8 7 6 5 3 2 1 0 1 3 3 2 2 2 2 1 1 2 1 1 1 0 1 1 1
9 7 6 6 6 5 6 5 9 10 13 15 15 15 15 15 16 16 15 13 12 12 11 9 8 7 6 5 3 3 3 2 2 2 3 2 2 2 1 2 2 2 2 2 1 1 1 1 2
10 6 6 7 9 9 8 5 6 8 11 13 14 16 16 16 16 16 15 13 13 13 12 10 9 7 6 5 4 3 2 2 3 3 4 3 2 2 1 2 2 2 1 2 2 2 1 1 1
10 8 8 10 9 10 10 6 6 9 11 13 14 14 14 15 15 15 15 13 12 12 12 12 10 8 7 6 5 3 2 2 2 2 2 2 3 2 2 3 2 1 2 2 1 2 1 1 1
13 10 7 8 8 8 8 6 4 9 11 12 13 13 14 14 14 15 15 14 13 13 12 12 11 9 8 7 5 5 4 3 2 1 1 0 2 2 2 2 2 2 2 2 2 1 2 2 1
15 15 11 9 7 4 5 5 4 7 9 10 11 12 14 14 14 14 14 14 13 13 12 12 12 10 9 8 6 5 4 3 2 1 0 1 1 2 3 2 2 2 3 3 2 2 2 2 2
15 15 15 13 11 7 6 5 3 6 9 10 11 12 13 14 15 15 15 14 14 13 12 12 12 10 9 8 7 5 4 3 2 3 2 1 1 2 3 2 2 2 2 2 2 2 3 3 2
17 14 10 11 8 9 6 7 4 7 9 11 11 12 12 13 14 15 14 14 13 13 12 12 12 10 10 9 8 7 6 5 3 2 3 2 2 3 3 2 2 2 2 3 3 2 3 3 3
16 16 12 9 9 9 6 4 3 5 5 9 11 11 12 13 13 13 13 13 14 13 13 12 12 11 10 8 7 6 7 6 5 4 3 3 2 2 2 2 2 2 3 3 3 3 3 4 3
16 17 16 11 9 9 9 5 7 6 5 5 9 10 10 10 11 13 13 13 13 14 13 12 12 11 10 9 8 6 6 6 5 5 4 4 3 2 2 2 2 2 3 3 3 3 4 4 4
Wind_Direction
214 222 221 237 239 74 66 66 67 69 66 60 60 67 63 60 72 91 105 100 101 98 95 84 73 72 74 77 81 81 78 76 75 77 81 85 90 91 92 94 98 99 97 97 96 96 99 100 102
231 228 224 243 64 74 71 68 70 72 77 76 72 75 74 73 84 98 103 107 103 98 93 85 80 77 77 78 81 82 81 77 77 78 81 84 89 91 93 94 97 99 97 97 97 98 98 100 103
250 249 253 81 66 72 77 77 82 85 88 86 77 67 69 84 89 102 112 111 102 97 94 92 87 82 79 80 81 83 83 81 80 80 82 84 87 90 94 96 98 98 98 97 100 101 100 101 103
253 234 154 71 73 74 82 92 98 91 87 85 87 80 73 83 99 109 113 110 107 106 100 97 92 88 84 84 86 86 86 83 82 82 82 85 86 90 96 98 98 99 102 102 102 102 102 102 103
240 253 86 79 78 78 78 82 85 85 84 85 87 92 91 94 104 110 114 116 112 107 105 105 102 95 90 88 89 89 89 88 86 86 86 87 89 91 94 97 98 99 101 102 104 104 105 104 104
255 201 97 90 87 85 88 89 89 92 99 103 102 101 100 109 111 113 114 111 109 109 107 112 111 106 102 102 100 96 94 94 94 93 94 94 94 96 98 99 101 103 105 106 109 110 110 108 107
261 66 94 98 94 87 84 91 93 94 96 104 111 110 114 116 115 115 110 109 109 112 115 126 125 119 113 110 110 108 105 102 102 103 103 105 105 105 106 106 105 107 110 111 112 115 117 118 121
272 57 89 94 95 94 91 88 89 92 88 104 118 114 123 126 125 119 115 109 103 108 116 128 132 137 132 124 125 122 120 118 116 116 119 121 119 119 120 120 117 116 118 121 123 127 132 136 146
336 69 79 88 95 102 102 96 95 96 92 80 87 109 122 128 126 124 115 105 100 104 111 122 121 130 136 131 135 138 135 137 137 139 144 150 144 138 136 125 129 130 131 137 146 153 163 177 196
61 76 77 86 98 103 105 111 122 112 103 98 100 111 125 131 134 130 123 121 114 115 118 115 109 113 115 116 131 143 139 142 157 143 154 164 154 140 135 137 143 148 155 162 174 183 193 203 204
80 84 90 94 100 107 109 112 116 117 117 118 123 129 134 136 136 131 125 118 116 124 116 111 101 95 87 97 119 124 126 133 142 138 136 131 130 142 143 151 158 170 178 189 184 198 211 205 206
88 89 97 99 102 101 100 96 92 98 112 122 128 132 134 137 135 131 124 118 121 121 111 102 99 85 61 58 83 116 108 118 115 115 110 112 104 43 109 151 164 179 184 188 195 206 204 202 180
101 99 101 101 100 97 96 95 98 103 114 124 131 137 141 141 135 128 120 119 121 120 109 97 95 86 80 52 13 71 72 90 97 95 87 88 97 72 54 19 35 165 169 162 191 223 274 256 231
111 120 117 114 111 109 103 107 111 117 124 131 139 144 143 139 136 130 127 126 128 128 115 113 112 108 100 96 51 57 95 109 105 87 81 79 88 94 92 38 7 305 338 127 181 179 160 192 194
128 141 140 133 135 129 125 118 121 132 136 143 147 149 144 140 137 138 137 138 135 130 121 128 132 122 120 122 147 113 107 99 104 107 103 100 105 128 194 169 195 246 243 176 257 268 171 197 185
180 194 168 149 148 138 147 131 136 145 148 151 154 152 147 147 149 145 141 142 137 133 129 136 130 126 123 102 21 24 46 70 78 106 113 96 88 132 214 182 177 226 221 228 219 243 247 133 46
229 209 182 163 159 152 152 140 149 157 158 159 161 159 159 159 158 151 149 148 139 134 135 136 117 126 137 143 158 118 81 76 98 92 99 98 104 7 303 82 78 285 291 272 272 100 22 359 10
232 226 199 166 159 152 148 143 158 167 168 168 169 166 167 168 165 155 156 150 143 140 142 146 140 135 146 143 149 124 124 147 113 92 84 102 122 89 337 201 78 333 315 335 26 46 258 242 244
235 240 209 183 168 169 150 152 170 173 177 174 174 172 170 171 164 160 164 156 152 149 151 156 160 152 159 157 167 169 164 161 129 123 102 106 84 65 49 33 31 309 343 329 312 0 231 218 186
237 250 235 194 177 188 153 173 190 182 184 181 178 175 173 171 167 165 169 165 161 159 161 164 168 165 171 164 167 175 155 146 130 104 103 88 81 51 62 78 329 33 350 3 323 268 276 259 195
239 247 255 236 228 215 180 185 198 203 189 182 181 178 176 176 173 171 175 173 167 166 171 174 173 168 173 166 175 165 139 147 143 132 116 101 93 80 34 36 17 357 22 59 280 351 300 277 281
243 245 251 243 245 250 227 196 198 202 196 186 184 184 183 179 175 174 176 175 172 171 170 163 164 164 165 173 182 187 179 174 141 129 127 137 117 106 88 51 31 3 4 22 340 55 316 286 306
250 249 259 253 251 259 251 227 174 199 198 191 187 186 185 180 176 175 176 174 175 171 166 162 159 162 167 174 185 195 186 165 138 125 138 153 141 124 75 72 40 0 17 10 339 347 344 338 309
250 249 255 252 253 255 262 252 185 189 189 189 186 182 183 177 174 172 171 167 171 168 165 162 159 164 166 176 178 167 159 122 106 118 158 179 153 125 82 85 46 9 9 348 360 344 9 360 327
236 237 244 247 239 251 261 250 186 172 180 178 174 177 178 174 170 169 168 168 169 168 166 159 159 165 168 171 172 167 173 164 158 175 163 206 108 110 85 60 49 26 8 11 16 3 13 7 330
230 236 236 247 246 246 266 241 189 160 156 153 163 171 174 173 170 169 169 169 170 170 162 158 161 166 168 167 168 169 173 173 162 171 158 93 84 86 89 86 66 35 15 15 14 14 20 22 353
236 237 244 250 260 257 231 230 201 166 151 152 157 162 170 174 171 171 171 171 170 168 163 159 158 161 163 162 160 159 156 161 158 140 129 52 55 99 79 72 77 48 24 14 18 32 28 21 21
240 245 249 251 257 263 237 237 214 171 163 161 157 160 162 165 170 172 171 171 168 167 161 156 156 160 163 167 172 167 165 159 156 141 126 104 70 50 56 53 60 52 36 29 39 44 42 43 33
225 236 246 258 260 262 253 228 204 162 174 167 156 154 155 162 167 167 167 168 165 165 163 159 157 162 166 165 163 162 159 159 159 154 140 125 112 88 76 58 64 64 51 48 51 54 56 53 40
236 232 234 235 246 263 268 227 179 150 163 164 148 149 152 157 164 162 163 162 163 166 165 163 164 168 168 164 162 162 154 156 159 154 148 147 135 122 106 90 62 69 65 58 55 51 56 55 48
Height
1472 1472 1473 1475 1473 1474 1480 1479 1477 1480 1482 1484 1485 1486 1492 1494 1500 1514 1516 1516 1516 1515 1514 1513 1512 1511 1511 1511 1511 1511 1511 1511 1511 1510 1511 1512 1513 1514 1515 1516 1516 1518 1520 1521 1522 1523 1525 1526 1528
1472 1473 1476 1474 1474 1485 1488 1481 1483 1484 1485 1487 1488 1492 1496 1501 1507 1513 1516 1518 1518 1517 1516 1515 1515 1514 1514 1514 1515 1515 1515 1515 1514 1514 1514 1515 1516 1517 1518 1519 1520 1521 1522 1524 1525 1526 1528 1530 1531
1472 1474 1475 1469 1475 1485 1488 1482 1483 1484 1486 1489 1493 1497 1502 1507 1511 1514 1518 1519 1519 1519 1517 1517 1517 1517 1517 1517 1517 1518 1518 1518 1518 1518 1518 1518 1519 1520 1521 1522 1523 1524 1526 1527 1528 1529 1531 1533 1534
1473 1474 1472 1472 1480 1478 1479 1481 1482 1485 1488 1490 1494 1502 1508 1512 1515 1517 1519 1521 1521 1521 1520 1520 1519 1519 1519 1520 1520 1520 1521 1521 1521 1521 1521 1522 1523 1523 1525 1525 1526 1527 1528 1530 1531 1532 1534 1536 1537
1475 1472 1472 1478 1480 1478 1478 1480 1483 1487 1490 1495 1500 1507 1513 1516 1518 1519 1521 1522 1523 1523 1523 1522 1522 1522 1522 1522 1523 1523 1524 1524 1524 1524 1525 1525 1526 1527 1527 1528 1529 1530 1531 1532 1534 1535 1537 1538 1540
1472 1467 1477 1485 1483 1479 1480 1483 1486 1490 1493 1497 1503 1509 1516 1519 1520 1522 1523 1524 1525 1525 1525 1525 1525 1525 1524 1524 1525 1526 1526 1527 1527 1528 1528 1529 1529 1530 1531 1531 1532 1533 1534 1535 1537 1538 1540 1541 1542
1469 1464 1473 1477 1482 1483 1482 1484 1488 1491 1494 1498 1503 1509 1516 1520 1522 1523 1525 1526 1527 1527 1527 1527 1527 1527 1527 1527 1528 1528 1529 1530 1530 1531 1531 1532 1533 1533 1534 1534 1535 1536 1537 1538 1540 1541 1542 1543 1545
1465 1464 1470 1474 1482 1485 1484 1486 1490 1493 1497 1500 1502 1508 1516 1521 1523 1525 1526 1528 1529 1530 1530 1530 1530 1530 1530 1530 1531 1531 1532 1533 1533 1534 1534 1535 1535 1536 1537 1537 1538 1539 1540 1541 1542 1543 1544 1546 1547
1463 1468 1476 1477 1481 1483 1484 1489 1494 1496 1500 1502 1505 1510 1517 1521 1524 1526 1528 1529 1531 1532 1532 1533 1533 1533 1533 1533 1534 1534 1535 1535 1536 1536 1537 1538 1538 1538 1539 1540 1540 1542 1543 1544 1545 1546 1547 1548 1549
1464 1473 1475 1473 1476 1480 1485 1489 1492 1496 1501 1506 1511 1515 1519 1522 1525 1527 1529 1531 1532 1533 1534 1535 1535 1536 1536 1537 1536 1537 1537 1538 1538 1539 1539 1540 1541 1541 1542 1542 1543 1544 1545 1545 1547 1547 1548 1549 1551
1467 1472 1472 1475 1478 1481 1484 1487 1490 1494 1501 1508 1513 1517 1521 1523 1526 1528 1530 1532 1533 1534 1535 1536 1536 1537 1538 1539 1539 1540 1540 1540 1540 1541 1541 1542 1543 1543 1544 1544 1544 1545 1546 1547 1548 1548 1550 1551 1552
1470 1471 1473 1475 1479 1481 1484 1487 1491 1496 1503 1509 1514 1518 1521 1524 1526 1528 1530 1532 1534 1536 1537 1537 1538 1538 1539 1540 1541 1541 1542 1542 1542 1542 1543 1543 1544 1545 1545 1546 1546 1547 1547 1548 1549 1550 1551 1552 1553
1471 1473 1475 1478 1480 1483 1486 1490 1495 1501 1506 1511 1515 1519 1522 1525 1527 1529 1531 1533 1535 1537 1538 1538 1538 1539 1540 1540 1541 1542 1543 1543 1543 1543 1543 1544 1545 1545 1546 1547 1547 1548 1549 1549 1550 1550 1551 1552 1552
1473 1475 1476 1478 1482 1485 1489 1493 1497 1504 1508 1513 1516 1519 1522 1525 1527 1530 1532 1534 1535 1537 1538 1539 1539 1539 1540 1541 1542 1543 1544 1544 1544 1544 1543 1544 1545 1545 1546 1547 1547 1548 1549 1550 1550 1550 1551 1551 1552
1475 1477 1477 1478 1480 1484 1489 1496 1498 1504 1509 1513 1516 1519 1522 1525 1528 1530 1532 1534 1535 1537 1538 1539 1540 1540 1541 1542 1543 1544 1544 1545 1544 1544 1544 1545 1545 1545 1546 1547 1547 1548 1549 1550 1550 1550 1551 1551 1552
1476 1481 1485 1478 1477 1482 1490 1503 1499 1503 1507 1511 1515 1519 1522 1525 1527 1530 1532 1534 1535 1537 1538 1540 1541 1541 1541 1542 1543 1544 1545 1544 1544 1544 1545 1545 1545 1545 1546 1546 1547 1548 1548 1549 1549 1550 1550 1551 1551
1482 1488 1486 1480 1474 1478 1485 1497 1498 1501 1505 1509 1513 1517 1521 1524 1527 1529 1531 1533 1535 1536 1538 1539 1540 1541 1542 1543 1543 1544 1544 1544 1544 1544 1544 1544 1544 1545 1545 1546 1546 1547 1548 1548 1549 1549 1549 1549 1550
1490 1485 1482 1480 1474 1477 1485 1491 1495 1498 1502 1506 1510 1515 1519 1522 1525 1528 1531 1533 1534 1536 1537 1539 1540 1541 1542 1543 1544 1544 1545 1545 1545 1545 1544 1544 1544 1545 1545 1546 1546 1546 1547 1547 1548 1548 1548 1548 1549
1476 1480 1481 1477 1470 1476 1485 1490 1491 1494 1498 1502 1507 1511 1516 1520 1524 1527 1529 1532 1533 1535 1537 1538 1539 1541 1542 1543 1544 1544 1545 1545 1545 1545 1544 1544 1545 1545 1545 1545 1546 1546 1546 1546 1547 1547 1547 1547 1548
1473 1478 1479 1474 1470 1475 1484 1491 1489 1490 1493 1497 1502 1507 1512 1517 1521 1524 1528 1530 1532 1534 1535 1537 1538 1540 1541 1542 1543 1544 1544 1545 1545 1545 1545 1545 1545 1545 1546 1545 1546 1546 1546 1546 1546 1546 1547 1547 1547
1474 1477 1478 1479 1473 1473 1482 1495 1492 1489 1490 1494 1499 1503 1508 1513 1517 1521 1525 1528 1531 1532 1534 1536 1537 1539 1540 1542 1543 1544 1544 1544 1545 1545 1545 1545 1545 1546 1546 1546 1546 1546 1546 1546 1546 1546 1546 1546 1546
1476 1467 1471 1475 1483 1487 1482 1505 1495 1489 1488 1489 1494 1499 1504 1508 1513 1518 1522 1526 1528 1531 1533 1535 1536 1538 1539 1541 1542 1543 1543 1544 1545 1545 1545 1545 1545 1545 1545 1545 1545 1545 1545 1545 1545 1545 1545 1545 1545
1467 1465 1469 1473 1480 1486 1479 1492 1496 1489 1489 1487 1489 1494 1499 1504 1509 1514 1519 1523 1526 1529 1531 1533 1535 1537 1538 1539 1541 1542 1543 1544 1545 1545 1546 1546 1546 1545 1545 1545 1545 1545 1545 1544 1544 1544 1544 1544 1544
1463 1468 1471 1473 1479 1499 1486 1489 1498 1485 1482 1482 1484 1489 1495 1500 1505 1511 1516 1520 1524 1527 1529 1531 1533 1535 1537 1539 1540 1541 1542 1543 1544 1545 1545 1546 1546 1545 1545 1545 1544 1544 1544 1544 1543 1543 1543 1542 1542
1465 1478 1496 1501 1503 1504 1483 1485 1484 1470 1469 1473 1479 1485 1491 1497 1502 1508 1513 1517 1521 1525 1528 1530 1532 1534 1536 1537 1539 1540 1541 1542 1543 1544 1545 1545 1546 1545 1544 1544 1544 1543 1543 1543 1543 1542 1542 1542 1541
1466 1472 1495 1511 1509 1502 1491 1490 1474 1463 1466 1470 1476 1482 1488 1494 1500 1505 1510 1515 1519 1523 1526 1528 1530 1532 1534 1536 1538 1539 1541 1542 1542 1543 1544 1544 1545 1544 1544 1543 1543 1542 1542 1542 1541 1541 1541 1540 1540
1466 1467 1464 1479 1487 1499 1495 1483 1471 1463 1465 1469 1474 1480 1485 1492 1497 1503 1508 1512 1517 1520 1524 1526 1528 1531 1533 1535 1537 1538 1540 1541 1542 1543 1543 1543 1544 1544 1543 1543 1542 1542 1542 1541 1541 1540 1540 1540 1539
1458 1461 1468 1478 1497 1507 1499 1493 1483 1472 1468 1469 1473 1478 1484 1490 1495 1500 1505 1510 1514 1518 1522 1525 1527 1529 1532 1534 1536 1537 1538 1540 1541 1541 1542 1542 1543 1543 1543 1543 1542 1542 1541 1541 1540 1540 1539 1539 1539
1462 1465 1469 1473 1478 1496 1506 1501 1473 1470 1467 1467 1471 1477 1482 1488 1493 1498 1503 1508 1512 1516 1520 1523 1525 1528 1530 1532 1534 1536 1537 1539 1539 1540 1541 1541 1542 1542 1542 1542 1542 1541 1541 1541 1540 1540 1539 1539 1538
1453 1459 1464 1481 1485 1482 1489 1487 1460 1462 1466 1467 1470 1476 1481 1486 1491 1496 1501 1505 1510 1514 1518 1521 1523 1526 1529 1531 1533 1535 1536 1537 1538 1539 1540 1541 1541 1541 1541 1542 1542 1541 1541 1540 1540 1539 1539 1538 1538